BEL6KU EBBR-LFPG

Flight info

Callsign BEL6KU
Flight time 0h 40m
Altitude 19000
Route CIV Y50 IDOKO/N0381F170 Y50 MATIX
Aircraft A320/M-SDE3FGHIRWY/LB1

Departure

Time 2026-05-05 18:18
Airport Brussels Airport (EBBR)

Arrival

Time 2026-05-05 18:58
Airport Charles de Gaulle International Airport (LFPG)
Time Latitude Longitude Altitude Speed Heading
2026-05-05 17:48 50.90483 4.48840 117 ft 0 kts 155°
2026-05-05 18:03 50.90497 4.48830 117 ft 2 kts 149°
2026-05-05 18:04 50.90511 4.48818 116 ft 2 kts 147°
2026-05-05 18:04 50.90521 4.48807 117 ft 2 kts 143°
2026-05-05 18:04 50.90528 4.48799 116 ft 2 kts 139°
2026-05-05 18:04 50.90539 4.48781 117 ft 2 kts 123°
2026-05-05 18:05 50.90546 4.48758 117 ft 2 kts 96°
2026-05-05 18:05 50.90546 4.48732 120 ft 2 kts 70°
2026-05-05 18:05 50.90543 4.48720 117 ft 0 kts 65°
2026-05-05 18:05 50.90543 4.48719 117 ft 0 kts 65°
2026-05-05 18:06 50.90558 4.48774 117 ft 14 kts 65°
2026-05-05 18:07 50.90603 4.48931 119 ft 16 kts 65°
2026-05-05 18:07 50.90647 4.49093 119 ft 12 kts 80°
2026-05-05 18:07 50.90605 4.49164 122 ft 4 kts 156°
2026-05-05 18:07 50.90601 4.49167 123 ft 0 kts 155°
2026-05-05 18:10 50.90600 4.49168 119 ft 2 kts 155°
2026-05-05 18:10 50.90559 4.49198 122 ft 12 kts 155°
2026-05-05 18:10 50.90443 4.49279 120 ft 17 kts 156°
2026-05-05 18:11 50.90360 4.49342 123 ft 11 kts 153°
2026-05-05 18:11 50.90299 4.49403 124 ft 10 kts 170°
2026-05-05 18:11 50.90243 4.49388 127 ft 8 kts 194°
2026-05-05 18:11 50.90120 4.49338 131 ft 27 kts 194°
2026-05-05 18:12 50.89936 4.49263 135 ft 27 kts 194°
2026-05-05 18:12 50.89764 4.49193 146 ft 24 kts 194°
2026-05-05 18:12 50.89651 4.49147 152 ft 10 kts 187°
2026-05-05 18:12 50.89597 4.49187 155 ft 11 kts 152°
2026-05-05 18:13 50.89498 4.49161 160 ft 18 kts 194°
2026-05-05 18:13 50.89392 4.49117 165 ft 14 kts 194°
2026-05-05 18:13 50.89319 4.49088 167 ft 2 kts 194°
2026-05-05 18:13 50.89315 4.49086 167 ft 3 kts 194°
2026-05-05 18:14 50.89268 4.49067 170 ft 7 kts 194°
2026-05-05 18:14 50.89234 4.49053 173 ft 6 kts 194°
2026-05-05 18:14 50.89178 4.49036 176 ft 7 kts 173°
2026-05-05 18:14 50.89151 4.49082 176 ft 5 kts 103°
2026-05-05 18:15 50.89157 4.49136 176 ft 4 kts 71°
2026-05-05 18:15 50.89158 4.49140 176 ft 0 kts 71°
2026-05-05 18:17 50.89203 4.49336 176 ft 58 kts 70°
2026-05-05 18:17 50.89434 4.50328 176 ft 128 kts 69°
2026-05-05 18:17 50.89791 4.51905 391 ft 163 kts 68°
2026-05-05 18:18 50.90198 4.53573 1222 ft 161 kts 61°
2026-05-05 18:18 50.90698 4.55153 2088 ft 160 kts 59°
2026-05-05 18:18 50.91213 4.56707 2880 ft 158 kts 59°
2026-05-05 18:18 50.91730 4.58250 3563 ft 162 kts 60°
2026-05-05 18:19 50.92294 4.59932 3942 ft 184 kts 60°
2026-05-05 18:19 50.92931 4.61839 4310 ft 207 kts 61°
2026-05-05 18:19 50.93625 4.63957 4753 ft 228 kts 65°
2026-05-05 18:19 50.94184 4.66456 5263 ft 251 kts 71°
2026-05-05 18:20 50.94720 4.69159 6081 ft 262 kts 72°
2026-05-05 18:20 50.95260 4.71963 6969 ft 268 kts 73°
2026-05-05 18:20 50.95465 4.74924 7879 ft 276 kts 95°
2026-05-05 18:20 50.94893 4.77836 8813 ft 283 kts 118°
2026-05-05 18:21 50.93591 4.80190 9762 ft 289 kts 143°
2026-05-05 18:21 50.91765 4.81689 10354 ft 306 kts 156°
2026-05-05 18:21 50.89663 4.82600 10662 ft 332 kts 176°
2026-05-05 18:21 50.87326 4.81932 10992 ft 354 kts 204°
2026-05-05 18:22 50.85282 4.79592 11609 ft 366 kts 226°
2026-05-05 18:22 50.83797 4.76365 12363 ft 371 kts 240°
2026-05-05 18:22 50.82690 4.72659 13144 ft 375 kts 249°
2026-05-05 18:22 50.81783 4.68765 13877 ft 380 kts 251°
2026-05-05 18:23 50.80912 4.64800 14526 ft 385 kts 250°
2026-05-05 18:23 50.79980 4.60809 15220 ft 389 kts 248°
2026-05-05 18:23 50.78964 4.56851 15952 ft 391 kts 246°
2026-05-05 18:23 50.77867 4.52902 16779 ft 390 kts 244°
2026-05-05 18:24 50.76739 4.49023 17632 ft 389 kts 243°
2026-05-05 18:24 50.75586 4.45134 18372 ft 390 kts 243°
2026-05-05 18:24 50.74429 4.41252 18741 ft 393 kts 243°
2026-05-05 18:24 50.73271 4.37345 18862 ft 395 kts 243°
2026-05-05 18:25 50.72086 4.33324 18887 ft 414 kts 243°
2026-05-05 18:25 50.71259 4.30504 18885 ft 423 kts 244°
2026-05-05 18:25 50.69616 4.24876 18881 ft 434 kts 244°
2026-05-05 18:25 50.68337 4.20483 18878 ft 445 kts 244°
2026-05-05 18:26 50.67041 4.16035 18876 ft 448 kts 244°
2026-05-05 18:26 50.65736 4.11559 18873 ft 449 kts 244°
2026-05-05 18:26 50.64432 4.07098 18868 ft 449 kts 244°
2026-05-05 18:26 50.63120 4.02635 18868 ft 449 kts 244°
2026-05-05 18:27 50.61802 3.98177 18862 ft 449 kts 244°
2026-05-05 18:27 50.60379 3.93818 18858 ft 447 kts 236°
2026-05-05 18:27 50.58405 3.90068 18864 ft 445 kts 222°
2026-05-05 18:27 50.55917 3.87206 18863 ft 444 kts 208°
2026-05-05 18:28 50.50029 3.84706 18857 ft 442 kts 181°
2026-05-05 18:28 50.46960 3.85071 18859 ft 442 kts 174°
2026-05-05 18:28 50.43903 3.85614 18858 ft 443 kts 174°
2026-05-05 18:29 50.40841 3.86151 18861 ft 443 kts 174°
2026-05-05 18:29 50.37774 3.86678 18861 ft 443 kts 174°
2026-05-05 18:29 50.34756 3.87193 18858 ft 443 kts 174°
2026-05-05 18:29 50.31680 3.87713 18860 ft 443 kts 174°
2026-05-05 18:30 50.28624 3.88229 18858 ft 443 kts 174°
2026-05-05 18:30 50.25560 3.88746 18855 ft 442 kts 174°
2026-05-05 18:30 50.22504 3.89262 18860 ft 442 kts 174°
2026-05-05 18:30 50.19435 3.89784 18857 ft 442 kts 174°
2026-05-05 18:31 50.16383 3.90304 18853 ft 441 kts 174°
2026-05-05 18:31 50.13326 3.90825 18845 ft 441 kts 174°
2026-05-05 18:31 50.10278 3.91342 18848 ft 441 kts 174°
2026-05-05 18:31 50.07220 3.91862 18840 ft 441 kts 174°
2026-05-05 18:32 50.04176 3.92378 18842 ft 441 kts 174°
2026-05-05 18:32 50.01126 3.92863 18834 ft 441 kts 176°
2026-05-05 18:32 49.98079 3.92534 18822 ft 441 kts 190°
2026-05-05 18:32 49.95058 3.91658 18824 ft 441 kts 188°
2026-05-05 18:33 49.92067 3.90552 18827 ft 442 kts 199°
2026-05-05 18:33 49.89178 3.88887 18828 ft 442 kts 200°
2026-05-05 18:33 49.86299 3.87194 18821 ft 443 kts 200°
2026-05-05 18:33 49.83416 3.85487 18825 ft 443 kts 200°
2026-05-05 18:34 49.80568 3.83805 18823 ft 443 kts 200°
2026-05-05 18:34 49.77652 3.82097 18818 ft 444 kts 200°
2026-05-05 18:34 49.74729 3.80546 18683 ft 441 kts 198°
2026-05-05 18:34 49.71937 3.78976 18360 ft 424 kts 200°
2026-05-05 18:35 49.69253 3.77378 18245 ft 403 kts 201°
2026-05-05 18:35 49.66690 3.75821 18123 ft 386 kts 201°
2026-05-05 18:35 49.64230 3.74335 17724 ft 377 kts 201°
2026-05-05 18:35 49.61798 3.72891 17178 ft 372 kts 201°
2026-05-05 18:36 49.59387 3.71480 16599 ft 369 kts 200°
2026-05-05 18:36 49.56992 3.70091 16026 ft 367 kts 200°
2026-05-05 18:36 49.54611 3.68722 15494 ft 363 kts 200°
2026-05-05 18:36 49.52258 3.67379 14984 ft 360 kts 200°
2026-05-05 18:37 49.49930 3.65937 14806 ft 360 kts 206°
2026-05-05 18:37 49.47809 3.63887 14809 ft 362 kts 218°
2026-05-05 18:37 49.45988 3.61223 14816 ft 362 kts 229°
2026-05-05 18:37 49.44335 3.58182 14819 ft 380 kts 229°
2026-05-05 18:38 49.42601 3.55066 14820 ft 379 kts 232°
2026-05-05 18:38 49.41426 3.51571 14664 ft 365 kts 252°
2026-05-05 18:38 49.41019 3.47749 14226 ft 361 kts 266°
2026-05-05 18:38 49.41000 3.43910 13736 ft 357 kts 265°
2026-05-05 18:39 49.40600 3.40237 13169 ft 352 kts 251°
2026-05-05 18:39 49.39672 3.36715 12524 ft 351 kts 245°
2026-05-05 18:39 49.39044 3.34440 12125 ft 349 kts 245°
2026-05-05 18:39 49.37805 3.29862 11319 ft 346 kts 246°
2026-05-05 18:40 49.36903 3.26488 10906 ft 347 kts 246°
2026-05-05 18:40 49.35984 3.23047 10796 ft 348 kts 247°
2026-05-05 18:40 49.35064 3.19603 10826 ft 349 kts 246°
2026-05-05 18:40 49.34142 3.16164 10825 ft 349 kts 246°
2026-05-05 18:41 49.33217 3.12729 10822 ft 349 kts 246°
2026-05-05 18:41 49.32280 3.09271 10824 ft 352 kts 247°
2026-05-05 18:41 49.31332 3.05777 10828 ft 357 kts 247°
2026-05-05 18:41 49.30375 3.02252 10821 ft 359 kts 247°
2026-05-05 18:42 49.29412 2.98700 10826 ft 360 kts 247°
2026-05-05 18:42 49.28455 2.95169 10826 ft 360 kts 247°
2026-05-05 18:42 49.27496 2.91640 10824 ft 359 kts 247°
2026-05-05 18:42 49.26536 2.88112 10830 ft 358 kts 247°
2026-05-05 18:43 49.25585 2.84612 10820 ft 353 kts 247°
2026-05-05 18:43 49.24641 2.81146 10831 ft 352 kts 246°
2026-05-05 18:43 49.23696 2.77691 10828 ft 352 kts 246°
2026-05-05 18:43 49.22748 2.74242 10821 ft 352 kts 247°
2026-05-05 18:44 49.21801 2.70793 10837 ft 352 kts 246°
2026-05-05 18:44 49.20849 2.67335 10833 ft 352 kts 246°
2026-05-05 18:44 49.19898 2.63883 10828 ft 355 kts 247°
2026-05-05 18:44 49.18935 2.60386 10832 ft 352 kts 248°
2026-05-05 18:45 49.18233 2.56923 10839 ft 331 kts 260°
2026-05-05 18:45 49.18014 2.53523 10830 ft 313 kts 269°
2026-05-05 18:45 49.17950 2.50263 10710 ft 304 kts 269°
2026-05-05 18:45 49.17881 2.47045 10418 ft 300 kts 269°
2026-05-05 18:46 49.17811 2.43913 10068 ft 298 kts 269°
2026-05-05 18:46 49.17740 2.40760 9724 ft 297 kts 270°
2026-05-05 18:46 49.17672 2.37611 9334 ft 295 kts 270°
2026-05-05 18:46 49.17617 2.34487 8926 ft 293 kts 270°
2026-05-05 18:47 49.17583 2.31366 8513 ft 292 kts 270°
2026-05-05 18:47 49.17557 2.28287 8132 ft 289 kts 271°
2026-05-05 18:47 49.17533 2.25218 7725 ft 288 kts 271°
2026-05-05 18:47 49.17508 2.22170 7333 ft 285 kts 271°
2026-05-05 18:48 49.17490 2.20175 7063 ft 284 kts 271°
2026-05-05 18:48 49.17404 2.17165 6650 ft 284 kts 262°
2026-05-05 18:48 49.16650 2.14398 6257 ft 284 kts 234°
2026-05-05 18:48 49.15199 2.12374 5799 ft 284 kts 214°
2026-05-05 18:49 49.13551 2.10701 5319 ft 284 kts 212°
2026-05-05 18:49 49.11885 2.09070 4889 ft 283 kts 212°
2026-05-05 18:49 49.10250 2.07478 4429 ft 283 kts 212°
2026-05-05 18:49 49.08592 2.05874 4049 ft 281 kts 212°
2026-05-05 18:50 49.06938 2.04279 3998 ft 282 kts 212°
2026-05-05 18:50 49.05312 2.02721 3999 ft 267 kts 212°
2026-05-05 18:50 49.03786 2.01277 4004 ft 252 kts 212°
2026-05-05 18:50 49.02276 1.99963 4005 ft 249 kts 200°
2026-05-05 18:51 49.00586 1.99672 4006 ft 244 kts 167°
2026-05-05 18:51 48.99141 2.00843 4007 ft 236 kts 126°
2026-05-05 18:51 48.98546 2.03057 4004 ft 223 kts 85°
2026-05-05 18:51 48.99034 2.05205 4008 ft 217 kts 52°
2026-05-05 18:52 48.99859 2.07146 3994 ft 221 kts 69°
2026-05-05 18:52 49.00091 2.09470 4014 ft 225 kts 82°
2026-05-05 18:52 49.00208 2.11846 4017 ft 225 kts 82°
2026-05-05 18:52 49.00338 2.14221 4000 ft 225 kts 82°
2026-05-05 18:53 49.00470 2.16563 4007 ft 226 kts 81°
2026-05-05 18:53 49.00606 2.18943 4009 ft 225 kts 81°
2026-05-05 18:53 49.00741 2.21311 4012 ft 226 kts 82°
2026-05-05 18:53 49.00878 2.23719 4005 ft 228 kts 82°
2026-05-05 18:54 49.01014 2.26124 3817 ft 228 kts 82°
2026-05-05 18:54 49.01149 2.28524 3534 ft 226 kts 82°
2026-05-05 18:54 49.01283 2.30904 3238 ft 226 kts 82°
2026-05-05 18:54 49.01414 2.33272 2931 ft 222 kts 81°
2026-05-05 18:55 49.01544 2.35605 2637 ft 219 kts 82°
2026-05-05 18:55 49.01672 2.37903 2344 ft 216 kts 82°
2026-05-05 18:55 49.01794 2.40113 2054 ft 202 kts 81°
2026-05-05 18:55 49.01906 2.42174 1807 ft 189 kts 81°
2026-05-05 18:56 49.02011 2.44095 1559 ft 174 kts 80°
2026-05-05 18:56 49.02103 2.45808 1333 ft 150 kts 80°
2026-05-05 18:56 49.02191 2.47302 1092 ft 137 kts 80°
2026-05-05 18:56 49.02261 2.48728 843 ft 131 kts 83°
2026-05-05 18:57 49.02309 2.50099 665 ft 131 kts 71°
2026-05-05 18:57 49.02410 2.51472 544 ft 131 kts 76°
2026-05-05 18:57 49.02493 2.52856 387 ft 130 kts 79°
2026-05-05 18:57 49.02561 2.54105 354 ft 90 kts 85°
2026-05-05 18:58 49.02589 2.54659 352 ft 33 kts 84°
2026-05-05 18:58 49.02603 2.54979 357 ft 27 kts 88°
2026-05-05 18:58 49.02583 2.55243 355 ft 24 kts 108°
2026-05-05 18:58 49.02514 2.55466 360 ft 22 kts 115°
2026-05-05 18:59 49.02461 2.55593 355 ft 11 kts 149°
2026-05-05 18:59 49.02405 2.55613 355 ft 6 kts 177°
2026-05-05 18:59 49.02371 2.55617 355 ft 9 kts 174°
2026-05-05 18:59 49.02276 2.55629 358 ft 13 kts 176°
2026-05-05 19:00 49.02205 2.55637 355 ft 10 kts 176°
2026-05-05 19:00 49.02125 2.55647 357 ft 8 kts 168°
2026-05-05 19:00 49.02096 2.55655 354 ft 11 kts 172°
2026-05-05 19:00 49.02058 2.55633 356 ft 3 kts 169°
2026-05-05 19:01 49.01994 2.55665 355 ft 12 kts 171°
2026-05-05 19:01 49.01928 2.55669 355 ft 7 kts 189°
2026-05-05 19:01 49.01901 2.55643 355 ft 4 kts 226°
2026-05-05 19:01 49.01891 2.55614 358 ft 1 kts 253°
2026-05-05 19:02 49.01887 2.55572 363 ft 4 kts 265°
2026-05-05 19:02 49.01886 2.55553 359 ft 0 kts 265°
2026-05-05 19:02 49.01886 2.55545 358 ft 5 kts 266°
2026-05-05 19:02 49.01883 2.55487 358 ft 4 kts 265°
2026-05-05 19:03 49.01880 2.55435 355 ft 10 kts 264°
2026-05-05 19:03 49.01872 2.55291 355 ft 10 kts 265°
2026-05-05 19:03 49.01868 2.55213 355 ft 6 kts 265°
2026-05-05 19:03 49.01865 2.55150 360 ft 5 kts 265°
2026-05-05 19:04 49.01862 2.55102 357 ft 7 kts 265°
2026-05-05 19:04 49.01860 2.55062 355 ft 6 kts 265°
2026-05-05 19:04 49.01851 2.54918 355 ft 7 kts 260°
2026-05-05 19:04 49.01827 2.54867 357 ft 11 kts 211°
2026-05-05 19:05 49.01734 2.54866 355 ft 14 kts 175°
2026-05-05 19:05 49.01624 2.54882 355 ft 18 kts 174°
2026-05-05 19:05 49.01513 2.54895 356 ft 14 kts 175°
2026-05-05 19:05 49.01436 2.54907 355 ft 9 kts 173°
2026-05-05 19:06 49.01360 2.54930 359 ft 20 kts 165°
2026-05-05 19:06 49.01221 2.54994 357 ft 18 kts 165°
2026-05-05 19:06 49.01114 2.55039 361 ft 14 kts 165°
2026-05-05 19:06 49.01026 2.55077 362 ft 12 kts 163°
2026-05-05 19:07 49.00954 2.55108 356 ft 16 kts 164°
2026-05-05 19:07 49.00861 2.55148 357 ft 21 kts 164°
2026-05-05 19:07 49.00718 2.55214 363 ft 12 kts 156°
2026-05-05 19:07 49.00719 2.55328 357 ft 16 kts 39°
2026-05-05 19:08 49.00823 2.55309 355 ft 16 kts 343°
2026-05-05 19:08 49.00937 2.55257 357 ft 18 kts 345°
2026-05-05 19:08 49.01053 2.55207 362 ft 16 kts 343°
2026-05-05 19:08 49.01156 2.55163 361 ft 14 kts 344°
2026-05-05 19:09 49.01215 2.55133 355 ft 13 kts 333°
2026-05-05 19:09 49.01237 2.55029 355 ft 9 kts 262°
2026-05-05 19:09 49.01231 2.54930 355 ft 8 kts 266°
2026-05-05 19:09 49.01227 2.54847 355 ft 13 kts 265°
2026-05-05 19:10 49.01217 2.54654 358 ft 18 kts 265°
2026-05-05 19:10 49.01208 2.54489 354 ft 13 kts 265°
2026-05-05 19:10 49.01209 2.54394 352 ft 7 kts 286°
2026-05-05 19:10 49.01243 2.54338 349 ft 9 kts 325°
2026-05-05 19:11 49.01326 2.54323 349 ft 11 kts 16°
2026-05-05 19:11 49.01391 2.54360 354 ft 10 kts 21°
2026-05-05 19:11 49.01446 2.54379 356 ft 5 kts 25°
2026-05-05 19:11 49.01448 2.54393 355 ft 1 kts 78°
2026-05-05 19:12 49.01450 2.54410 360 ft 3 kts 82°
2026-05-05 19:12 49.01451 2.54429 354 ft 2 kts 85°
2026-05-05 19:12 49.01451 2.54459 359 ft 1 kts 89°
2026-05-05 19:12 49.01451 2.54485 359 ft 1 kts 90°
2026-05-05 19:13 49.01451 2.54487 359 ft 0 kts 90°